This is the latest recevied weather packets stored in our database for station/object KD0RII. If no packets are shown the sender has not sent any weather packets the latest 10 day(s).
| Time | Temp. | Humidity | Pressure | Rain* | Wind** | Luminosity | Snow |
|---|---|---|---|---|---|---|---|
| 1778081661 | 13.33° C | 56% | 1020.6 hPa | 0 mm | - | 428 W/m² | - |
| 1778081359 | 13.33° C | 56% | 1020.8 hPa | 0 mm | - | 328 W/m² | - |
| 1778081055 | 13.33° C | 54% | 1020.9 hPa | 0 mm | - | 366 W/m² | - |
| 1778080754 | 13.89° C | 54% | 1020.9 hPa | 0 mm | - | 335 W/m² | - |
| 1778080451 | 13.89° C | 55% | 1020.9 hPa | 0 mm | - | 382 W/m² | - |
| 1778080148 | 13.33° C | 56% | 1020.9 hPa | 0 mm | - | 404 W/m² | - |
| 1778079844 | 13.33° C | 53% | 1020.6 hPa | 0 mm | - | 524 W/m² | - |
| 1778079541 | 13.33° C | 57% | 1020.3 hPa | 0 mm | - | 505 W/m² | - |
| 1778079237 | 13.33° C | 53% | 1020.4 hPa | 0 mm | - | 415 W/m² | - |
| 1778078935 | 13.33° C | 55% | 1020.4 hPa | 0 mm | - | 409 W/m² | - |
| 1778078631 | 13.89° C | 60% | 1020.6 hPa | 0 mm | - | 449 W/m² | - |
| 1778078330 | 13.33° C | 59% | 1020.4 hPa | 0 mm | - | 439 W/m² | - |
| 1778078026 | 12.78° C | 65% | 1020.2 hPa | 0 mm | - | 366 W/m² | - |
| 1778077725 | 12.78° C | 62% | 1020.2 hPa | 0 mm | - | 358 W/m² | - |
| 1778077422 | 11.11° C | 66% | 1020.4 hPa | 0 mm | - | 391 W/m² | - |
| 1778077121 | 10.56° C | 70% | 1020.5 hPa | 0 mm | - | 268 W/m² | - |
| 1778076818 | 10.56° C | 73% | 1020.4 hPa | 0 mm | - | 206 W/m² | - |
| 1778076516 | 10.56° C | 72% | 1020.5 hPa | 0 mm | - | 144 W/m² | - |
| 1778076213 | 10° C | 75% | 1020.7 hPa | 0 mm | - | 197 W/m² | - |
| 1778075910 | 10° C | 75% | 1020.6 hPa | 0 mm | - | 157 W/m² | - |
| 1778075606 | 10° C | 77% | 1020.7 hPa | 0 mm | - | 136 W/m² | - |
| 1778075303 | 10° C | 75% | 1020.5 hPa | 0 mm | - | 146 W/m² | - |
| 1778074999 | 10° C | 77% | 1020.7 hPa | 0 mm | - | 143 W/m² | - |
| 1778074696 | 10° C | 79% | 1020.2 hPa | 0 mm | - | 151 W/m² | - |
| 1778074393 | 9.44° C | 82% | 1020.3 hPa | 0 mm | - | 159 W/m² | - |
* Rain latest hour (hover to see other rain measurements)
** Current wind speed in m/s (hover to see current wind gust speed)